This is the latest recevied weather packets stored in our database for station/object VE3TEJ. If no packets are shown the sender has not sent any weather packets the latest 10 day(s).
| Time | Temp. | Humidity | Pressure | Rain* | Wind** | Luminosity | Snow |
|---|---|---|---|---|---|---|---|
| 1778103458 | 8.89° C | 47% | 1010.9 hPa | 0 mm | - | - | - |
| 1778103157 | 8.89° C | 47% | 1010.9 hPa | 0 mm | - | - | - |
| 1778102859 | 9.44° C | 45% | 1010.9 hPa | 0 mm | - | - | - |
| 1778102558 | 9.44° C | 48% | 1010.9 hPa | 0 mm | - | - | - |
| 1778102258 | 9.44° C | 45% | 1010.8 hPa | 0 mm | - | - | - |
| 1778101958 | 9.44° C | 48% | 1010.7 hPa | 0 mm | - | - | - |
| 1778101657 | 8.89° C | 48% | 1010.8 hPa | 0 mm | - | - | - |
| 1778101357 | 8.89° C | 49% | 1010.9 hPa | 0 mm | - | - | - |
| 1778101059 | 8.89° C | 49% | 1010.6 hPa | 0 mm | - | - | - |
| 1778100758 | 8.89° C | 50% | 1010.5 hPa | 0 mm | - | - | - |
| 1778100458 | 8.89° C | 52% | 1010.5 hPa | 0 mm | - | - | - |
| 1778100157 | 8.89° C | 53% | 1010.5 hPa | 0 mm | - | - | - |
| 1778099859 | 8.33° C | 52% | 1010.7 hPa | 0 mm | - | - | - |
| 1778099558 | 9.44° C | 51% | 1010.6 hPa | 0 mm | - | - | - |
| 1778099258 | 8.89° C | 53% | 1010.7 hPa | 0 mm | - | - | - |
| 1778098958 | 8.89° C | 53% | 1010.7 hPa | 0 mm | - | - | - |
| 1778098657 | 8.89° C | 55% | 1010.7 hPa | 0 mm | - | - | - |
| 1778098359 | 8.33° C | 56% | 1010.7 hPa | 0 mm | - | - | - |
| 1778098058 | 7.78° C | 56% | 1010.6 hPa | 0 mm | - | - | - |
| 1778097758 | 8.33° C | 55% | 1010.7 hPa | 0 mm | - | - | - |
| 1778097457 | 8.33° C | 54% | 1010.5 hPa | 0 mm | - | - | - |
| 1778097159 | 8.33° C | 54% | 1010.7 hPa | 0 mm | - | - | - |
| 1778096859 | 8.33° C | 55% | 1010.5 hPa | 0 mm | - | - | - |
| 1778096558 | 8.89° C | 56% | 1010.7 hPa | 0 mm | - | - | - |
| 1778096258 | 9.44° C | 53% | 1010.4 hPa | 0 mm | - | - | - |
* Rain latest hour (hover to see other rain measurements)
** Current wind speed in m/s (hover to see current wind gust speed)